Jackson, MN

7:08 AM CST on November 22, 2017 (GMT -0600)
Jackson Municipal

Weather History for KMJQ - April, 2013

Change the Weather History Date:

Wednesday, April 17, 2013

  Actual Average Record
Temperature  
Mean Temperature 35 °F -  
Max Temperature 37 °F 55 °F 77 °F (2016)
Min Temperature 33 °F 34 °F 23 °F (1997)
Degree Days  
Heating Degree Days 30    
Moisture  
Dew Point 32 °F    
Average Humidity 89    
Maximum Humidity 93    
Minimum Humidity 81    
Precipitation  
Precipitation 0.51 in - - ()
Sea Level Pressure  
Sea Level Pressure 30.07 in    
Wind  
Wind Speed 11 mph (NNE)    
Max Wind Speed 22 mph    
Max Gust Speed 28 mph    
Visibility 6 miles    
Events Rain , Snow , Thunderstorm    
Averages and records for this station are not official NWS values.
T = Trace of Precipitation, MM = Missing Value Source: NWS Daily Summary

Daily Weather History Graph

Daily Weather History Graph

Search for Another Location

Airport or City:

Trip Planner

Search our weather history database for the weather conditions in past years. The results will help you decide how hot, cold, wet, or windy it might be!

Date:

Astronomy

Apr. 17, 2013 Rise Set
Actual Time 6:33 AM CDT 8:06 PM CDT
Civil Twilight 6:03 AM CDT 8:36 PM CDT
Nautical Twilight 5:27 AM CDT 9:12 PM CDT
Astronomical Twilight 4:48 AM CDT 9:51 PM CDT
Moon 11:44 AM CDT (4/17) 1:48 AM CDT (4/17)
Length of Visible Light 14h 32m
Length of Day
13h 32m
Waxing Crescent, 42% of the Moon is Illuminated
Apr 17
Waxing Crescent
Apr 18
First Quarter
Apr 25
Full
May 2
Last Quarter
May 9
New

Hourly Weather History & Observations

Time (CDT) Temp. Windchill Dew Point Humidity Pressure Visibility Wind Dir Wind Speed Gust Speed Precip Events Conditions
12:12 AM 33.8 °F 27.7 °F 30.2 °F 87% 30.26 in 10.0 mi NNE 6.9 mph - N/A   Overcast
12:32 AM 33.8 °F 27.7 °F 30.2 °F 87% 30.27 in 10.0 mi NNE 6.9 mph - N/A   Overcast
12:53 AM 33.8 °F 27.0 °F 30.2 °F 87% 30.26 in 10.0 mi NNE 8.1 mph - N/A   Overcast
1:12 AM 33.8 °F 27.0 °F 30.2 °F 87% 30.27 in 10.0 mi NNE 8.1 mph - N/A   Overcast
1:32 AM 33.8 °F 28.6 °F 30.2 °F 87% 30.27 in 10.0 mi NNE 5.8 mph - N/A   Overcast
1:53 AM 33.8 °F 27.0 °F 30.2 °F 87% 30.26 in 10.0 mi NNE 8.1 mph - N/A   Overcast
2:12 AM 33.8 °F 27.7 °F 30.2 °F 87% 30.26 in 10.0 mi NNE 6.9 mph - N/A   Overcast
2:32 AM 33.8 °F 26.4 °F 30.2 °F 87% 30.25 in 10.0 mi NE 9.2 mph - N/A   Overcast
2:52 AM 33.8 °F 27.7 °F 30.2 °F 87% 30.26 in 10.0 mi NNE 6.9 mph - N/A   Overcast
3:12 AM 33.8 °F 27.0 °F 30.2 °F 87% 30.26 in 10.0 mi NNE 8.1 mph - N/A   Overcast
3:32 AM 33.8 °F 25.8 °F 30.2 °F 87% 30.25 in 10.0 mi NNE 10.4 mph - N/A   Overcast
3:53 AM 33.8 °F 26.4 °F 30.2 °F 87% 30.23 in 10.0 mi NE 9.2 mph - N/A   Overcast
4:12 AM 33.8 °F 23.9 °F 30.2 °F 87% 30.19 in 10.0 mi NNE 15.0 mph - N/A Snow Light Snow
4:32 AM 33.8 °F 23.9 °F 30.2 °F 87% 30.16 in 10.0 mi NNE 15.0 mph - N/A   Overcast
4:52 AM 33.8 °F 25.3 °F 30.2 °F 87% 30.17 in 10.0 mi NNE 11.5 mph - N/A   Overcast
5:13 AM 33.8 °F 26.4 °F 30.2 °F 87% 30.19 in 10.0 mi NE 9.2 mph - N/A   Overcast
5:32 AM 33.8 °F 28.6 °F 30.2 °F 87% 30.21 in 10.0 mi NNE 5.8 mph - N/A   Overcast
5:52 AM 33.8 °F 28.6 °F 30.2 °F 87% 30.22 in 10.0 mi NE 5.8 mph - N/A   Overcast
6:13 AM 33.8 °F 26.4 °F 30.2 °F 87% 30.22 in 10.0 mi NNE 9.2 mph - N/A   Overcast
6:32 AM 33.8 °F 26.4 °F 30.2 °F 87% 30.19 in 10.0 mi NNE 9.2 mph - N/A   Overcast
6:52 AM 33.8 °F 25.3 °F 30.2 °F 87% 30.15 in 10.0 mi NE 11.5 mph - N/A   Overcast
7:13 AM 33.8 °F 25.8 °F 30.2 °F 87% 30.15 in 10.0 mi NE 10.4 mph - N/A   Overcast
7:32 AM 35.6 °F 27.5 °F 30.2 °F 81% 30.16 in 10.0 mi NE 11.5 mph - N/A   Overcast
7:52 AM 35.6 °F 28.6 °F 30.2 °F 81% 30.19 in 10.0 mi NNE 9.2 mph - N/A   Overcast
8:13 AM 35.6 °F 29.2 °F 30.2 °F 81% 30.22 in 10.0 mi NNE 8.1 mph - N/A Snow Light Snow
8:32 AM 33.8 °F 27.7 °F 30.2 °F 87% 30.21 in 5.0 mi NNE 6.9 mph - N/A Snow Light Snow
9:13 AM 33.8 °F 26.4 °F 32.0 °F 93% 30.17 in 3.0 mi NNE 9.2 mph - N/A Snow Light Snow
9:32 AM 33.8 °F 24.8 °F 32.0 °F 93% 30.15 in 3.0 mi NE 12.7 mph - N/A Snow Light Snow
9:52 AM 33.8 °F 23.9 °F 32.0 °F 93% 30.13 in 2.5 mi NE 15.0 mph - N/A   Overcast
10:13 AM 33.8 °F 22.8 °F 32.0 °F 93% 30.11 in 2.5 mi NE 18.4 mph - N/A Snow Light Snow
10:32 AM 33.8 °F 22.8 °F 32.0 °F 93% 30.08 in 3.0 mi NE 18.4 mph - N/A Snow Light Snow
10:52 AM 33.8 °F 23.2 °F 32.0 °F 93% 30.08 in 5.0 mi NE 17.3 mph - 0.02 in Snow Light Snow
11:12 AM 33.8 °F 22.8 °F 32.0 °F 93% 30.09 in 7.0 mi NE 18.4 mph - 0.02 in   Overcast
11:32 AM 33.8 °F 23.9 °F 32.0 °F 93% 30.11 in 10.0 mi NE 15.0 mph 19.6 mph 0.06 in   Overcast
11:53 AM 33.8 °F 23.9 °F 32.0 °F 93% 30.10 in 10.0 mi NE 15.0 mph - 0.08 in   Overcast
12:12 PM 33.8 °F 23.9 °F 32.0 °F 93% 30.10 in 10.0 mi NE 15.0 mph - 0.03 in   Overcast
12:32 PM 35.6 °F 25.9 °F 32.0 °F 87% 30.08 in 5.0 mi NE 16.1 mph - 0.07 in   Overcast
12:53 PM 35.6 °F 24.8 °F 32.0 °F 87% 30.04 in 7.0 mi NE 19.6 mph - 0.12 in   Overcast
1:12 PM 35.6 °F 25.2 °F 33.8 °F 93% 30.02 in 10.0 mi NE 18.4 mph - 0.03 in   Overcast
1:32 PM 35.6 °F 25.9 °F 33.8 °F 93% 30.03 in 10.0 mi NE 16.1 mph 23.0 mph 0.05 in   Overcast
1:52 PM 37.4 °F 28.5 °F 33.8 °F 87% 30.02 in 10.0 mi NE 15.0 mph - 0.05 in   Overcast
2:12 PM 37.4 °F 28.5 °F 33.8 °F 87% 30.02 in 5.0 mi ENE 15.0 mph - N/A   Overcast
2:32 PM 37.4 °F 27.8 °F 33.8 °F 87% 30.00 in 1.8 mi NE 17.3 mph - N/A Rain Light Rain
2:52 PM 37.4 °F 27.5 °F 33.8 °F 87% 29.99 in 1.2 mi NE 18.4 mph - N/A Rain Light Rain
3:32 PM 37.4 °F 27.8 °F 33.8 °F 87% 29.98 in 1.2 mi NE 17.3 mph - 0.01 in Rain Light Rain
3:52 PM 37.4 °F 28.2 °F 33.8 °F 87% 29.96 in 1.2 mi NE 16.1 mph - 0.01 in Rain Light Rain
4:13 PM 37.4 °F 27.5 °F 33.8 °F 87% 29.98 in 1.8 mi NE 18.4 mph - N/A   Overcast
4:32 PM 37.4 °F 27.5 °F 33.8 °F 87% 29.95 in 1.2 mi NE 18.4 mph 24.2 mph 0.01 in Rain Light Rain
4:52 PM 37.4 °F 26.9 °F 33.8 °F 87% 29.93 in 1.2 mi NE 20.7 mph 24.2 mph 0.01 in Rain Light Rain
5:13 PM 35.6 °F 25.5 °F 33.8 °F 93% 29.92 in 2.0 mi NE 17.3 mph 27.6 mph 0.01 in Rain Light Rain
5:32 PM 35.6 °F 24.8 °F 33.8 °F 93% 29.92 in 2.5 mi NE 19.6 mph 24.2 mph 0.01 in   Overcast
5:52 PM 35.6 °F 25.2 °F 33.8 °F 93% 29.91 in 2.0 mi NE 18.4 mph 21.9 mph 0.01 in   Overcast
6:12 PM 35.6 °F 25.5 °F 33.8 °F 93% 29.91 in 2.5 mi NE 17.3 mph - N/A   Overcast
6:33 PM 35.6 °F 25.9 °F 33.8 °F 93% 29.91 in 4.0 mi NNE 16.1 mph 25.3 mph N/A   Overcast
6:52 PM 35.6 °F 25.5 °F 33.8 °F 93% 29.94 in 4.0 mi NE 17.3 mph 20.7 mph N/A   Overcast
7:12 PM 35.6 °F 25.2 °F 33.8 °F 93% 29.92 in 1.8 mi NE 18.4 mph 23.0 mph N/A Rain Rain
7:33 PM 35.6 °F 29.2 °F 33.8 °F 93% 29.96 in 1.8 mi NNE 8.1 mph - 0.03 in Rain , Thunderstorm Rain
7:52 PM 35.6 °F 27.1 °F 32.0 °F 87% 29.95 in 4.0 mi NNE 12.7 mph - 0.07 in Rain Rain
8:13 PM 33.8 °F 21.9 °F 32.0 °F 93% 29.84 in 4.0 mi NNE 21.9 mph 27.6 mph 0.06 in Rain Light Rain
8:32 PM 33.8 °F 23.5 °F 32.0 °F 93% 29.91 in 5.0 mi NNE 16.1 mph - 0.10 in Rain Light Rain
8:52 PM 33.8 °F 22.8 °F 32.0 °F 93% 29.89 in 5.0 mi NNE 18.4 mph 24.2 mph 0.11 in   Overcast
9:12 PM 33.8 °F 22.8 °F 32.0 °F 93% 29.89 in 7.0 mi NNE 18.4 mph - N/A   Overcast
9:53 PM 33.8 °F 23.9 °F 32.0 °F 93% 29.92 in 4.0 mi North 15.0 mph 20.7 mph N/A   Overcast
10:12 PM 33.8 °F 27.0 °F 32.0 °F 93% 29.92 in 3.0 mi North 8.1 mph - 0.01 in   Overcast
10:32 PM 33.8 °F 25.3 °F 32.0 °F 93% 29.91 in 2.5 mi North 11.5 mph - 0.02 in   Overcast
10:53 PM 33.8 °F 25.8 °F 32.0 °F 93% 29.91 in 3.0 mi North 10.4 mph - 0.02 in   Overcast
11:12 PM 33.8 °F 24.8 °F 32.0 °F 93% 29.90 in 3.0 mi North 12.7 mph 16.1 mph N/A   Overcast
11:32 PM 33.8 °F 23.9 °F 32.0 °F 93% 29.89 in 4.0 mi North 15.0 mph 23.0 mph 0.01 in   Overcast
11:53 PM 33.8 °F 23.9 °F 32.0 °F 93% 29.88 in 5.0 mi North 15.0 mph 20.7 mph 0.01 in   Overcast